timestamp,surface_pressure_avg,surface_temp_avg,battery_voltage,lat,long
2019-03-14 00:00:00+00:00,233.8082,-0.5,12.97,47.84626,-54.09684
2019-03-14 00:10:00+00:00,234.3581,-0.5,12.89,47.84626,-54.09684
2019-03-14 00:20:00+00:00,237.4481,-0.51,12.97,47.84626,-54.09684
2019-03-14 00:30:00+00:00,240.0131,-0.51,12.97,47.84626,-54.09684
2019-03-14 00:40:00+00:00,238.4481,-0.54,12.97,47.84626,-54.09684
2019-03-14 00:50:00+00:00,238.7331,-0.6,12.97,47.84626,-54.09684
2019-03-14 01:00:00+00:00,246.173,-0.6,12.89,47.84626,-54.09684
2019-03-14 01:10:00+00:00,251.0181,-0.6,12.81,47.84626,-54.09684
2019-03-14 01:20:00+00:00,251.7897,-0.6,12.89,47.84626,-54.09684
2019-03-14 01:30:00+00:00,256.8814,-0.6,12.89,47.84626,-54.09684
2019-03-14 01:40:00+00:00,263.4264,-0.6,12.97,47.84626,-54.09684
2019-03-14 01:50:00+00:00,265.5048,-0.7,12.97,47.84626,-54.09684
2019-03-14 02:00:00+00:00,270.6348,-0.7,12.89,47.84626,-54.09684
2019-03-14 02:10:00+00:00,277.7964,-0.7,12.81,47.84626,-54.09684
2019-03-14 02:20:00+00:00,283.658,-0.7,12.89,47.84626,-54.09684
2019-03-14 02:30:00+00:00,291.0514,-0.7,12.89,47.84626,-54.09684
2019-03-14 02:40:00+00:00,296.673,-0.8,12.89,47.84626,-54.09684
2019-03-14 02:50:00+00:00,299.7847,-0.8,12.89,47.84626,-54.09684
2019-03-14 03:00:00+00:00,304.1298,-0.8,12.81,47.84626,-54.09684
2019-03-14 03:10:00+00:00,307.1613,-0.8,12.73,47.84626,-54.09684
2019-03-14 03:20:00+00:00,307.7246,-0.8,12.81,47.84626,-54.09684
2019-03-14 03:30:00+00:00,310.908,-0.8,12.89,47.84626,-54.09684
2019-03-14 03:40:00+00:00,313.2612,-0.8,12.89,47.84626,-54.09684
2019-03-14 03:50:00+00:00,311.618,-0.74,12.89,47.84626,-54.09684
2019-03-14 04:00:00+00:00,311.1629,-0.7,12.81,47.84626,-54.09684
2019-03-14 04:10:00+00:00,312.9696,-0.7,12.73,47.84626,-54.09684
2019-03-14 04:20:00+00:00,313.8497,-0.7,12.81,47.84626,-54.09684
2019-03-14 04:30:00+00:00,314.233,-0.7,12.81,47.84626,-54.09684
2019-03-14 04:40:00+00:00,311.9064,-0.7,12.89,47.84626,-54.09684
2019-03-14 04:50:00+00:00,312.8414,-0.7,12.89,47.84626,-54.09684
2019-03-14 05:00:00+00:00,314.7863,-0.7,12.81,47.84626,-54.09684
2019-03-14 05:10:00+00:00,315.083,-0.7,12.73,47.84626,-54.09684
2019-03-14 05:20:00+00:00,313.668,-0.7,12.81,47.84626,-54.09684
2019-03-14 05:30:00+00:00,311.6429,-0.7,12.81,47.84626,-54.09684
2019-03-14 05:40:00+00:00,310.3281,-0.7,12.81,47.84626,-54.09684
2019-03-14 05:50:00+00:00,311.623,-0.7,12.81,47.84626,-54.09684
2019-03-14 06:00:00+00:00,312.9264,-0.7,12.73,47.84626,-54.09684
2019-03-14 06:10:00+00:00,309.2513,-0.7,12.65,47.84626,-54.09684
2019-03-14 06:20:00+00:00,305.9246,-0.7,12.81,47.84626,-54.09684
2019-03-14 06:30:00+00:00,303.8013,-0.7,12.81,47.84626,-54.09684
2019-03-14 06:40:00+00:00,298.3781,-0.7,12.81,47.84626,-54.09684
2019-03-14 06:50:00+00:00,294.688,-0.7,12.81,47.84626,-54.09684
2019-03-14 07:00:00+00:00,288.5914,-0.7,12.73,47.84626,-54.09684
2019-03-14 07:10:00+00:00,282.2331,-0.7,12.65,47.84626,-54.09684
2019-03-14 07:20:00+00:00,278.7596,-0.7,12.73,47.84626,-54.09684
2019-03-14 07:30:00+00:00,275.7464,-0.7,12.73,47.84626,-54.09684
2019-03-14 07:40:00+00:00,267.0447,-0.7,12.81,47.84626,-54.09684
2019-03-14 07:50:00+00:00,261.2631,-0.7,12.81,47.84626,-54.09684
2019-03-14 08:00:00+00:00,255.6631,-0.7,12.73,47.84626,-54.09684
2019-03-14 08:10:00+00:00,246.4548,-0.7,12.65,47.84626,-54.09684
2019-03-14 08:20:00+00:00,238.3331,-0.7,12.73,47.84626,-54.09684
2019-03-14 08:30:00+00:00,233.5181,-0.7,12.73,47.84626,-54.09684
2019-03-14 08:40:00+00:00,227.0781,-0.7,12.73,47.84626,-54.09684
2019-03-14 08:50:00+00:00,217.9381,-0.7,12.81,47.84626,-54.09684
2019-03-14 09:00:00+00:00,212.7831,-0.7,12.65,47.84626,-54.09684
2019-03-14 09:10:00+00:00,211.4914,-0.7,12.65,47.84626,-54.09684
2019-03-14 09:20:00+00:00,206.2148,-0.7,12.73,47.84626,-54.09684
2019-03-14 09:30:00+00:00,203.2864,-0.7,12.73,47.84626,-54.09684
2019-03-14 09:40:00+00:00,203.0914,-0.68,12.73,47.84626,-54.09684
2019-03-14 09:50:00+00:00,200.1231,-0.67,12.73,47.84626,-54.09684
2019-03-14 10:00:00+00:00,197.8432,-0.67,12.65,47.84626,-54.09684
2019-03-14 10:10:00+00:00,193.9664,-0.68,12.97,47.84626,-54.09684
2019-03-14 10:20:00+00:00,198.1331,-0.67,13.6,47.84626,-54.09684
2019-03-14 10:30:00+00:00,205.5448,-0.68,14.32,47.84626,-54.09684
2019-03-14 10:40:00+00:00,203.6815,-0.65,14.88,47.84626,-54.09684
2019-03-14 10:50:00+00:00,203.6414,-0.64,15.11,47.84626,-54.09684
2019-03-14 11:00:00+00:00,206.1447,-0.64,14.96,47.84626,-54.09684
2019-03-14 11:10:00+00:00,206.2764,-0.65,15.04,47.84626,-54.09684
2019-03-14 11:20:00+00:00,210.4681,-0.66,15.27,47.84626,-54.09684
2019-03-14 11:30:00+00:00,213.8364,-0.66,15.2,47.84626,-54.09684
2019-03-14 11:40:00+00:00,213.5281,-0.64,15.2,47.84626,-54.09684
2019-03-14 11:50:00+00:00,215.7397,-0.63,15.2,47.84626,-54.09684
2019-03-14 12:00:00+00:00,219.5615,-0.64,15.04,47.84626,-54.09684
2019-03-14 12:10:00+00:00,218.6398,-0.63,15.04,47.84626,-54.09684
2019-03-14 12:20:00+00:00,218.3765,-0.61,15.11,47.84626,-54.09684
2019-03-14 12:30:00+00:00,222.4697,-0.61,15.11,47.84626,-54.09684
2019-03-14 12:40:00+00:00,225.1981,-0.62,15.11,47.84626,-54.09684
2019-03-14 12:50:00+00:00,227.4764,-0.61,15.11,47.84626,-54.09684
2019-03-14 13:00:00+00:00,230.6414,-0.61,14.96,47.84626,-54.09684
2019-03-14 13:10:00+00:00,234.2598,-0.6,14.96,47.84626,-54.09684
2019-03-14 13:20:00+00:00,236.6797,-0.6,15.04,47.84626,-54.09684
2019-03-14 13:30:00+00:00,239.4031,-0.6,15.04,47.84626,-54.09684
2019-03-14 13:40:00+00:00,243.4031,-0.6,15.04,47.84626,-54.09684
2019-03-14 13:50:00+00:00,247.0515,-0.6,14.96,47.84626,-54.09684
2019-03-14 14:00:00+00:00,253.6064,-0.6,14.96,47.84626,-54.09684
2019-03-14 14:10:00+00:00,260.3864,-0.6,14.96,47.84626,-54.09684
2019-03-14 14:20:00+00:00,263.7881,-0.6,14.96,47.84626,-54.09684
2019-03-14 14:30:00+00:00,263.9514,-0.6,14.96,47.84626,-54.09684
2019-03-14 14:40:00+00:00,274.3447,-0.6,14.96,47.84626,-54.09684
2019-03-14 14:50:00+00:00,281.7313,-0.61,14.96,47.84626,-54.09684
2019-03-14 15:00:00+00:00,279.8164,-0.6,14.88,47.84626,-54.09684
2019-03-14 15:10:00+00:00,285.4514,-0.6,14.8,47.84626,-54.09684
2019-03-14 15:20:00+00:00,295.2646,-0.6,14.88,47.84626,-54.09684
2019-03-14 15:30:00+00:00,293.2564,-0.6,14.88,47.84626,-54.09684
2019-03-14 15:40:00+00:00,290.678,-0.6,14.88,47.84626,-54.09684
2019-03-14 15:50:00+00:00,298.8964,-0.6,14.88,47.84626,-54.09684
2019-03-14 16:00:00+00:00,298.3297,-0.6,14.72,47.84626,-54.09684
2019-03-14 16:10:00+00:00,293.913,-0.6,14.8,47.84626,-54.09684
2019-03-14 16:20:00+00:00,298.9364,-0.6,14.72,47.84626,-54.09684
2019-03-14 16:30:00+00:00,299.0613,-0.6,14.64,47.84626,-54.09684
2019-03-14 16:40:00+00:00,293.1047,-0.6,14.64,47.84626,-54.09684
2019-03-14 16:50:00+00:00,292.583,-0.6,14.64,47.84626,-54.09684
2019-03-14 17:00:00+00:00,299.998,-0.6,14.56,47.84626,-54.09684
2019-03-14 17:10:00+00:00,298.6213,-0.6,14.4,47.84626,-54.09684
2019-03-14 17:20:00+00:00,294.4314,-0.6,14.4,47.84626,-54.09684
2019-03-14 17:30:00+00:00,296.1213,-0.6,14.4,47.84626,-54.09684
2019-03-14 17:40:00+00:00,300.3447,-0.6,14.48,47.84626,-54.09684
2019-03-14 17:50:00+00:00,297.4948,-0.6,14.48,47.84626,-54.09684
2019-03-14 18:00:00+00:00,289.6346,-0.54,14.48,47.84626,-54.09684
2019-03-14 18:10:00+00:00,292.3498,-0.55,14.4,47.84626,-54.09684
2019-03-14 18:20:00+00:00,292.1779,-0.56,14.48,47.84626,-54.09684
2019-03-14 18:30:00+00:00,287.1897,-0.57,14.48,47.84626,-54.09684
2019-03-14 18:40:00+00:00,287.1614,-0.54,14.48,47.84626,-54.09684
2019-03-14 18:50:00+00:00,289.8246,-0.57,14.48,47.84626,-54.09684
2019-03-14 19:00:00+00:00,289.8113,-0.59,14.32,47.84626,-54.09684
2019-03-14 19:10:00+00:00,282.0881,-0.56,14.24,47.84626,-54.09684
2019-03-14 19:20:00+00:00,270.9248,-0.51,14.32,47.84626,-54.09684
2019-03-14 19:30:00+00:00,266.0764,-0.5,14.24,47.84626,-54.09684
2019-03-14 19:40:00+00:00,263.0797,-0.5,14.24,47.84626,-54.09684
2019-03-14 19:50:00+00:00,253.8297,-0.5,14.24,47.84626,-54.09684
2019-03-14 20:00:00+00:00,244.1764,-0.48,14.08,47.84626,-54.09684
2019-03-14 20:10:00+00:00,241.1531,-0.45,13.92,47.84626,-54.09684
2019-03-14 20:20:00+00:00,236.3964,-0.46,13.92,47.84626,-54.09684
2019-03-14 20:30:00+00:00,229.2297,-0.48,13.92,47.84626,-54.09684
2019-03-14 20:40:00+00:00,230.2731,-0.5,13.92,47.84626,-54.09684
2019-03-14 20:50:00+00:00,229.6865,-0.5,13.84,47.84626,-54.09684
2019-03-14 21:00:00+00:00,219.4514,-0.45,13.76,47.84626,-54.09684
2019-03-14 21:10:00+00:00,218.2631,-0.41,13.6,47.84626,-54.09684
2019-03-14 21:20:00+00:00,219.8365,-0.41,13.53,47.84626,-54.09684
2019-03-14 21:30:00+00:00,213.2381,-0.4,13.53,47.84626,-54.09684
2019-03-14 21:40:00+00:00,207.2781,-0.4,13.44,47.84626,-54.09684
2019-03-14 21:50:00+00:00,209.9881,-0.4,13.44,47.84626,-54.09684
2019-03-14 22:00:00+00:00,210.3297,-0.4,13.29,47.84626,-54.09684
2019-03-14 22:10:00+00:00,204.9448,-0.32,13.21,47.84626,-54.09684
2019-03-14 22:20:00+00:00,207.6681,-0.35,13.21,47.84626,-54.09684
2019-03-14 22:30:00+00:00,214.3814,-0.4,13.13,47.84626,-54.09684
2019-03-14 22:40:00+00:00,217.2715,-0.41,13.13,47.84626,-54.09684
2019-03-14 22:50:00+00:00,212.3147,-0.5,13.13,47.84626,-54.09684
2019-03-14 23:00:00+00:00,214.4464,-0.5,13.05,47.84626,-54.09684
2019-03-14 23:10:00+00:00,228.2215,-0.5,12.97,47.84626,-54.09684
2019-03-14 23:20:00+00:00,225.2865,-0.5,12.97,47.84626,-54.09684
2019-03-14 23:30:00+00:00,216.1848,-0.5,12.97,47.84626,-54.09684
2019-03-14 23:40:00+00:00,223.1614,-0.5,12.97,47.84626,-54.09684
2019-03-14 23:50:00+00:00,229.5581,-0.5,12.97,47.84626,-54.09684
